Time,TemperatureF,DewpointF,PressureIn,WindDirection,WindDirectionDegrees,WindSpeedMPH,WindSpeedGustMPH,Humidity,HourlyPrecipIn,Conditions,Clouds,dailyrainin,SoftwareType,DateUTC
2013-06-19 00:00:00,57.7,-99.9,29.91,SSE,158,0.9,5.4,-999,0.00,,,0.00,homebrew,2013-06-19 07:00:00,
2013-06-19 00:05:00,57.5,-99.9,29.91,South,174,1.0,3.2,-999,0.00,,,0.00,homebrew,2013-06-19 07:05:00,
2013-06-19 00:10:00,57.4,-99.9,29.91,South,172,1.2,4.4,-999,0.00,,,0.00,homebrew,2013-06-19 07:10:00,
2013-06-19 00:15:00,57.3,-99.9,29.91,SSW,202,2.4,5.7,-999,0.00,,,0.00,homebrew,2013-06-19 07:15:00,
2013-06-19 00:20:00,57.3,-99.9,29.91,South,187,0.9,4.9,-999,0.00,,,0.00,homebrew,2013-06-19 07:20:00,
2013-06-19 00:25:00,57.2,-99.9,29.91,SSW,209,2.7,8.5,-999,0.00,,,0.00,homebrew,2013-06-19 07:25:00,
2013-06-19 00:35:00,57.0,-99.9,29.91,SW,214,1.8,5.6,-999,0.00,,,0.00,homebrew,2013-06-19 07:35:00,
2013-06-19 00:40:00,56.9,-99.9,29.91,SSW,209,2.0,4.6,-999,0.00,,,0.00,homebrew,2013-06-19 07:40:00,
2013-06-19 00:45:00,56.8,-99.9,29.91,SSW,202,1.9,6.0,-999,0.00,,,0.00,homebrew,2013-06-19 07:45:00,
2013-06-19 00:50:00,56.6,-99.9,29.91,South,191,2.0,7.4,-999,0.00,,,0.00,homebrew,2013-06-19 07:50:00,
2013-06-19 00:55:00,56.6,-99.9,29.91,SSW,194,0.6,2.5,-999,0.00,,,0.00,homebrew,2013-06-19 07:55:00,
2013-06-19 01:00:00,56.5,-99.9,29.91,South,189,1.7,5.5,-999,0.00,,,0.00,homebrew,2013-06-19 08:00:00,
2013-06-19 01:05:00,56.5,-99.9,29.91,South,176,0.7,3.1,-999,0.00,,,0.00,homebrew,2013-06-19 08:05:00,
2013-06-19 01:10:00,56.4,-99.9,29.91,South,174,1.1,3.9,-999,0.00,,,0.00,homebrew,2013-06-19 08:10:00,
2013-06-19 01:15:00,56.4,-99.9,29.91,SSW,198,1.5,4.6,-999,0.00,,,0.00,homebrew,2013-06-19 08:15:00,
2013-06-19 01:25:00,56.4,-99.9,29.91,SSE,166,1.4,4.3,-999,0.00,,,0.00,homebrew,2013-06-19 08:25:00,
2013-06-19 01:30:00,56.4,-99.9,29.90,South,183,1.5,5.2,-999,0.00,,,0.00,homebrew,2013-06-19 08:30:00,
2013-06-19 01:40:00,56.2,-99.9,29.90,South,187,1.5,7.1,-999,0.00,,,0.00,homebrew,2013-06-19 08:40:00,
2013-06-19 01:45:00,56.1,-99.9,29.90,SSW,199,1.8,5.0,-999,0.00,,,0.00,homebrew,2013-06-19 08:45:00,
2013-06-19 01:50:00,56.0,-99.9,29.90,SSW,201,1.7,5.2,-999,0.00,,,0.00,homebrew,2013-06-19 08:50:00,
2013-06-19 01:55:00,56.0,-99.9,29.90,SSW,202,1.9,5.3,-999,0.00,,,0.00,homebrew,2013-06-19 08:55:00,
2013-06-19 02:00:00,55.8,-99.9,29.89,SSW,202,1.9,6.3,-999,0.00,,,0.00,homebrew,2013-06-19 09:00:00,
2013-06-19 02:05:00,55.8,-99.9,29.89,SSW,204,2.3,7.2,-999,0.00,,,0.00,homebrew,2013-06-19 09:05:00,
2013-06-19 02:15:00,55.7,-99.9,29.89,South,182,1.7,5.6,-999,0.00,,,0.00,homebrew,2013-06-19 09:15:00,
2013-06-19 02:20:00,55.7,-99.9,29.89,SSW,194,2.4,8.6,-999,0.00,,,0.00,homebrew,2013-06-19 09:20:00,
2013-06-19 02:30:00,55.7,-99.9,29.89,SW,214,2.6,8.8,-999,0.00,,,0.00,homebrew,2013-06-19 09:30:00,
2013-06-19 02:35:00,55.6,-99.9,29.89,SSW,194,1.7,4.5,-999,0.00,,,0.00,homebrew,2013-06-19 09:35:00,
2013-06-19 02:40:00,55.6,-99.9,29.89,South,182,1.2,5.7,-999,0.00,,,0.00,homebrew,2013-06-19 09:40:00,
2013-06-19 02:45:00,55.5,-99.9,29.89,SSW,198,1.8,4.2,-999,0.00,,,0.00,homebrew,2013-06-19 09:45:00,
2013-06-19 02:50:00,55.5,-99.9,29.89,South,187,1.0,6.3,-999,0.00,,,0.00,homebrew,2013-06-19 09:50:00,
2013-06-19 02:55:00,55.4,-99.9,29.89,SSW,200,1.8,8.9,-999,0.00,,,0.00,homebrew,2013-06-19 09:55:00,
2013-06-19 03:00:00,55.2,-99.9,29.88,SSW,212,1.8,5.7,-999,0.00,,,0.00,homebrew,2013-06-19 10:00:00,
2013-06-19 03:05:00,55.1,-99.9,29.89,SSW,212,2.5,6.6,-999,0.00,,,0.00,homebrew,2013-06-19 10:05:00,
2013-06-19 03:10:00,54.9,-99.9,29.89,SSW,197,1.8,6.5,-999,0.00,,,0.00,homebrew,2013-06-19 10:10:00,
2013-06-19 03:20:00,54.7,-99.9,29.89,SW,223,2.5,6.8,-999,0.00,,,0.00,homebrew,2013-06-19 10:20:00,
2013-06-19 03:25:00,54.7,-99.9,29.89,SSW,199,1.8,7.5,-999,0.00,,,0.00,homebrew,2013-06-19 10:25:00,
2013-06-19 03:35:00,54.6,-99.9,29.90,South,181,0.9,4.0,-999,0.00,,,0.00,homebrew,2013-06-19 10:35:00,
2013-06-19 03:40:00,54.6,-99.9,29.89,SSE,166,1.1,6.9,-999,0.00,,,0.00,homebrew,2013-06-19 10:40:00,
2013-06-19 03:45:00,54.5,-99.9,29.89,SSW,211,0.3,3.2,-999,0.00,,,0.00,homebrew,2013-06-19 10:45:00,
2013-06-19 03:50:00,54.4,-99.9,29.90,SSW,202,0.9,4.3,-999,0.00,,,0.00,homebrew,2013-06-19 10:50:00,
2013-06-19 03:55:00,54.3,-99.9,29.90,SW,222,0.0,0.0,-999,0.00,,,0.00,homebrew,2013-06-19 10:55:00,
2013-06-19 04:00:00,54.2,-99.9,29.90,SSW,208,0.7,2.4,-999,0.00,,,0.00,homebrew,2013-06-19 11:00:00,
2013-06-19 04:10:00,54.2,-99.9,29.90,SSW,194,0.8,5.8,-999,0.00,,,0.00,homebrew,2013-06-19 11:10:00,
2013-06-19 04:15:00,54.2,-99.9,29.89,SSW,203,0.7,3.0,-999,0.00,,,0.00,homebrew,2013-06-19 11:15:00,
2013-06-19 04:25:00,54.2,-99.9,29.90,South,177,1.0,4.2,-999,0.00,,,0.00,homebrew,2013-06-19 11:25:00,
2013-06-19 04:30:00,54.2,-99.9,29.90,South,183,1.1,3.2,-999,0.00,,,0.00,homebrew,2013-06-19 11:30:00,
2013-06-19 04:35:00,54.3,-99.9,29.90,South,183,1.0,4.0,-999,0.00,,,0.00,homebrew,2013-06-19 11:35:00,
2013-06-19 04:40:00,54.3,-99.9,29.89,SSW,192,1.6,4.3,-999,0.00,,,0.00,homebrew,2013-06-19 11:40:00,
2013-06-19 04:45:00,54.3,-99.9,29.89,South,190,1.7,5.0,-999,0.00,,,0.00,homebrew,2013-06-19 11:45:00,
2013-06-19 04:50:00,54.4,-99.9,29.89,South,187,1.7,6.5,-999,0.00,,,0.00,homebrew,2013-06-19 11:50:00,
2013-06-19 04:55:00,54.3,-99.9,29.89,SSW,203,2.4,8.0,-999,0.00,,,0.00,homebrew,2013-06-19 11:55:00,
2013-06-19 05:00:00,54.3,-99.9,29.89,SSW,198,1.5,3.7,-999,0.00,,,0.00,homebrew,2013-06-19 12:00:00,
2013-06-19 05:05:00,54.2,-99.9,29.89,South,187,1.4,6.2,-999,0.00,,,0.00,homebrew,2013-06-19 12:05:00,
2013-06-19 05:15:00,54.1,-99.9,29.89,South,185,0.7,2.2,-999,0.00,,,0.00,homebrew,2013-06-19 12:15:00,
2013-06-19 05:20:00,54.1,-99.9,29.89,SSE,160,0.9,4.3,-999,0.00,,,0.00,homebrew,2013-06-19 12:20:00,
2013-06-19 05:30:00,54.0,-99.9,29.90,South,184,1.0,4.8,-999,0.00,,,0.00,homebrew,2013-06-19 12:30:00,
2013-06-19 05:35:00,54.1,-99.9,29.89,SSW,195,1.4,4.0,-999,0.00,,,0.00,homebrew,2013-06-19 12:35:00,
2013-06-19 05:40:00,54.2,-99.9,29.89,SSW,198,1.6,6.4,-999,0.00,,,0.00,homebrew,2013-06-19 12:40:00,
2013-06-19 05:45:00,54.3,-99.9,29.89,SSE,163,0.5,2.2,-999,0.00,,,0.00,homebrew,2013-06-19 12:45:00,
2013-06-19 05:50:00,54.4,-99.9,29.90,SW,218,1.3,4.0,-999,0.00,,,0.00,homebrew,2013-06-19 12:50:00,
2013-06-19 05:55:00,54.4,-99.9,29.90,South,177,1.3,6.0,-999,0.00,,,0.00,homebrew,2013-06-19 12:55:00,
2013-06-19 06:00:00,54.3,-99.9,29.90,South,171,0.8,3.4,-999,0.00,,,0.00,homebrew,2013-06-19 13:00:00,
2013-06-19 06:05:00,54.2,-99.9,29.90,SSW,209,1.5,6.6,-999,0.00,,,0.00,homebrew,2013-06-19 13:05:00,
2013-06-19 06:10:00,54.2,-99.9,29.90,SSE,161,0.7,3.7,-999,0.00,,,0.00,homebrew,2013-06-19 13:10:00,
2013-06-19 06:20:00,54.2,-99.9,29.90,South,173,0.2,1.6,-999,0.00,,,0.00,homebrew,2013-06-19 13:20:00,
2013-06-19 06:25:00,54.2,-99.9,29.90,SE,146,0.0,0.0,-999,0.00,,,0.00,homebrew,2013-06-19 13:25:00,
2013-06-19 06:35:00,54.3,-99.9,29.90,SSE,161,0.7,3.5,-999,0.00,,,0.00,homebrew,2013-06-19 13:35:00,
2013-06-19 06:40:00,54.3,-99.9,29.90,South,183,0.9,2.5,-999,0.00,,,0.00,homebrew,2013-06-19 13:40:00,
2013-06-19 06:45:00,54.5,-99.9,29.90,South,176,0.9,4.8,-999,0.00,,,0.00,homebrew,2013-06-19 13:45:00,
2013-06-19 06:50:00,54.7,-99.9,29.91,SW,226,0.1,2.2,-999,0.00,,,0.00,homebrew,2013-06-19 13:50:00,
2013-06-19 06:55:00,54.9,-99.9,29.91,South,189,1.5,5.5,-999,0.00,,,0.00,homebrew,2013-06-19 13:55:00,
2013-06-19 07:00:00,55.0,-99.9,29.91,South,179,0.7,3.7,-999,0.00,,,0.00,homebrew,2013-06-19 14:00:00,
2013-06-19 07:10:00,55.0,-99.9,29.91,SSW,193,1.4,6.9,-999,0.00,,,0.00,homebrew,2013-06-19 14:10:00,
2013-06-19 07:15:00,55.1,-99.9,29.91,SSW,193,1.2,4.8,-999,0.00,,,0.00,homebrew,2013-06-19 14:15:00,
2013-06-19 07:25:00,55.1,-99.9,29.91,South,181,0.8,6.9,-999,0.00,,,0.00,homebrew,2013-06-19 14:25:00,
2013-06-19 07:30:00,55.3,-99.9,29.91,SSW,194,1.8,4.6,-999,0.00,,,0.00,homebrew,2013-06-19 14:30:00,
2013-06-19 07:35:00,55.4,-99.9,29.91,South,180,2.0,8.1,-999,0.00,,,0.00,homebrew,2013-06-19 14:35:00,
2013-06-19 07:40:00,55.6,-99.9,29.91,SSW,196,2.3,6.8,-999,0.00,,,0.00,homebrew,2013-06-19 14:40:00,
2013-06-19 07:45:00,55.5,-99.9,29.91,SSW,207,3.2,7.3,-999,0.00,,,0.00,homebrew,2013-06-19 14:45:00,
2013-06-19 07:50:00,55.6,-99.9,29.91,South,178,2.0,5.8,-999,0.00,,,0.00,homebrew,2013-06-19 14:50:00,
2013-06-19 08:00:00,55.7,-99.9,29.91,SSW,209,0.5,4.0,-999,0.00,,,0.00,homebrew,2013-06-19 15:00:00,
2013-06-19 08:05:00,55.9,-99.9,29.91,SSW,192,1.8,4.4,-999,0.00,,,0.00,homebrew,2013-06-19 15:05:00,
2013-06-19 08:15:00,55.7,-99.9,29.91,South,191,2.0,5.8,-999,0.00,,,0.00,homebrew,2013-06-19 15:15:00,
2013-06-19 08:20:00,55.8,-99.9,29.91,SSW,210,2.9,8.8,-999,0.00,,,0.00,homebrew,2013-06-19 15:20:00,
2013-06-19 08:25:00,55.9,-99.9,29.91,SSW,192,1.4,5.7,-999,0.00,,,0.00,homebrew,2013-06-19 15:25:00,
2013-06-19 08:30:00,56.0,-99.9,29.91,SSW,207,2.8,6.9,-999,0.00,,,0.00,homebrew,2013-06-19 15:30:00,
2013-06-19 08:35:00,56.1,-99.9,29.91,SSW,201,1.4,4.3,-999,0.00,,,0.00,homebrew,2013-06-19 15:35:00,
2013-06-19 08:45:00,56.0,-99.9,29.91,SSW,193,2.2,5.1,-999,0.00,,,0.00,homebrew,2013-06-19 15:45:00,
2013-06-19 08:50:00,56.2,-99.9,29.91,SSW,206,1.5,6.0,-999,0.00,,,0.00,homebrew,2013-06-19 15:50:00,
2013-06-19 08:55:00,56.4,-99.9,29.91,SSW,195,2.2,7.0,-999,0.00,,,0.00,homebrew,2013-06-19 15:55:00,
2013-06-19 09:05:00,56.3,-99.9,29.91,South,191,2.1,8.0,-999,0.00,,,0.00,homebrew,2013-06-19 16:05:00,
2013-06-19 09:10:00,56.5,-99.9,29.92,SSW,204,2.2,5.6,-999,0.00,,,0.00,homebrew,2013-06-19 16:10:00,
2013-06-19 09:15:00,56.7,-99.9,29.92,SSW,207,2.3,6.0,-999,0.00,,,0.00,homebrew,2013-06-19 16:15:00,
2013-06-19 09:20:00,56.5,-99.9,29.91,SW,224,4.2,9.3,-999,0.00,,,0.00,homebrew,2013-06-19 16:20:00,
2013-06-19 09:25:00,56.5,-99.9,29.91,SSW,207,3.3,11.2,-999,0.00,,,0.00,homebrew,2013-06-19 16:25:00,
2013-06-19 09:30:00,56.5,-99.9,29.91,SSW,213,3.4,9.6,-999,0.00,,,0.00,homebrew,2013-06-19 16:30:00,
2013-06-19 09:35:00,56.6,-99.9,29.91,SW,218,3.6,8.4,-999,0.00,,,0.00,homebrew,2013-06-19 16:35:00,
2013-06-19 09:40:00,56.9,-99.9,29.91,SW,215,3.3,7.5,-999,0.00,,,0.00,homebrew,2013-06-19 16:40:00,
2013-06-19 09:45:00,56.9,-99.9,29.91,SSW,205,2.4,11.5,-999,0.00,,,0.00,homebrew,2013-06-19 16:45:00,
2013-06-19 09:55:00,57.5,-99.9,29.91,South,180,1.6,6.1,-999,0.00,,,0.00,homebrew,2013-06-19 16:55:00,
2013-06-19 10:00:00,57.7,-99.9,29.91,South,181,1.7,5.3,-999,0.00,,,0.00,homebrew,2013-06-19 17:00:00,
2013-06-19 10:10:00,57.4,-99.9,29.91,SSW,209,2.2,6.3,-999,0.00,,,0.00,homebrew,2013-06-19 17:10:00,
2013-06-19 10:15:00,58.0,-99.9,29.91,SSW,193,2.0,5.3,-999,0.00,,,0.00,homebrew,2013-06-19 17:15:00,
2013-06-19 10:25:00,58.3,-99.9,29.91,SSW,198,2.5,6.6,-999,0.00,,,0.00,homebrew,2013-06-19 17:25:00,
2013-06-19 10:30:00,58.5,-99.9,29.91,SSW,208,3.0,8.6,-999,0.00,,,0.00,homebrew,2013-06-19 17:30:00,
2013-06-19 10:35:00,58.7,-99.9,29.91,SSW,206,3.0,7.8,-999,0.00,,,0.00,homebrew,2013-06-19 17:35:00,
2013-06-19 10:45:00,58.9,-99.9,29.91,SSW,207,3.2,10.9,-999,0.00,,,0.00,homebrew,2013-06-19 17:45:00,
2013-06-19 10:50:00,58.9,-99.9,29.91,SSW,213,3.0,9.0,-999,0.00,,,0.00,homebrew,2013-06-19 17:50:00,
2013-06-19 11:00:00,59.5,-99.9,29.91,SSW,201,2.4,10.6,-999,0.00,,,0.00,homebrew,2013-06-19 18:00:00,
2013-06-19 11:05:00,59.6,-99.9,29.92,SSW,213,3.5,8.8,-999,0.00,,,0.00,homebrew,2013-06-19 18:05:00,
2013-06-19 11:10:00,59.5,-99.9,29.91,SSW,194,2.0,7.6,-999,0.00,,,0.00,homebrew,2013-06-19 18:10:00,
2013-06-19 11:15:00,59.5,-99.9,29.91,South,190,2.0,9.3,-999,0.00,,,0.00,homebrew,2013-06-19 18:15:00,
2013-06-19 11:20:00,59.6,-99.9,29.91,South,190,1.6,6.3,-999,0.00,,,0.00,homebrew,2013-06-19 18:20:00,
2013-06-19 11:25:00,59.6,-99.9,29.91,SSW,194,1.6,5.0,-999,0.00,,,0.00,homebrew,2013-06-19 18:25:00,
2013-06-19 11:30:00,59.8,-99.9,29.91,SW,218,2.9,7.2,-999,0.00,,,0.00,homebrew,2013-06-19 18:30:00,
2013-06-19 11:35:00,60.3,-99.9,29.91,SSW,202,2.5,7.6,-999,0.00,,,0.00,homebrew,2013-06-19 18:35:00,
2013-06-19 11:40:00,60.5,-99.9,29.91,SSW,199,1.8,6.5,-999,0.00,,,0.00,homebrew,2013-06-19 18:40:00,
2013-06-19 11:50:00,61.7,-99.9,29.91,SSW,201,2.1,6.0,-999,0.00,,,0.00,homebrew,2013-06-19 18:50:00,
2013-06-19 11:55:00,62.0,-99.9,29.91,SSW,195,2.2,8.3,-999,0.00,,,0.00,homebrew,2013-06-19 18:55:00,
2013-06-19 12:00:00,62.5,-99.9,29.91,SSW,195,2.3,7.7,-999,0.00,,,0.00,homebrew,2013-06-19 19:00:00,
2013-06-19 12:05:00,63.4,-99.9,29.91,SSW,208,2.6,7.3,-999,0.00,,,0.00,homebrew,2013-06-19 19:05:00,
2013-06-19 12:10:00,64.6,-99.9,29.91,SSW,198,2.0,5.5,-999,0.00,,,0.00,homebrew,2013-06-19 19:10:00,
2013-06-19 12:15:00,64.6,-99.9,29.91,SSW,212,1.8,6.2,-999,0.00,,,0.00,homebrew,2013-06-19 19:15:00,
2013-06-19 12:20:00,64.6,-99.9,29.91,SSW,210,2.8,6.7,-999,0.00,,,0.00,homebrew,2013-06-19 19:20:00,
2013-06-19 12:25:00,64.8,-99.9,29.91,SSW,192,1.8,6.2,-999,0.00,,,0.00,homebrew,2013-06-19 19:25:00,
2013-06-19 12:30:00,64.7,-99.9,29.91,SW,223,2.0,5.7,-999,0.00,,,0.00,homebrew,2013-06-19 19:30:00,
2013-06-19 12:40:00,64.1,-99.9,29.90,SSW,200,1.0,4.4,-999,0.00,,,0.00,homebrew,2013-06-19 19:40:00,
2013-06-19 12:45:00,64.6,-99.9,29.91,SW,221,1.0,4.1,-999,0.00,,,0.00,homebrew,2013-06-19 19:45:00,
2013-06-19 12:50:00,65.4,-99.9,29.91,WSW,258,0.5,3.4,-999,0.00,,,0.00,homebrew,2013-06-19 19:50:00,
2013-06-19 12:55:00,65.4,-99.9,29.91,SSW,203,1.7,4.0,-999,0.00,,,0.00,homebrew,2013-06-19 19:55:00,
2013-06-19 13:00:00,64.1,-99.9,29.91,SW,220,2.6,6.8,-999,0.00,,,0.00,homebrew,2013-06-19 20:00:00,
2013-06-19 13:05:00,64.5,-99.9,29.91,SW,214,1.9,5.1,-999,0.00,,,0.00,homebrew,2013-06-19 20:05:00,
2013-06-19 13:10:00,65.5,-99.9,29.91,South,179,1.3,3.4,-999,0.00,,,0.00,homebrew,2013-06-19 20:10:00,
2013-06-19 13:15:00,66.0,-99.9,29.91,SW,231,2.6,7.4,-999,0.00,,,0.00,homebrew,2013-06-19 20:15:00,
2013-06-19 13:20:00,66.2,-99.9,29.91,SSW,203,1.6,5.2,-999,0.00,,,0.00,homebrew,2013-06-19 20:20:00,
2013-06-19 13:30:00,68.0,-99.9,29.91,SSW,194,2.1,6.1,-999,0.00,,,0.00,homebrew,2013-06-19 20:30:00,
2013-06-19 13:35:00,68.0,-99.9,29.91,SSW,198,1.8,6.1,-999,0.00,,,0.00,homebrew,2013-06-19 20:35:00,
2013-06-19 13:45:00,65.3,-99.9,29.91,SW,228,2.3,4.8,-999,0.00,,,0.00,homebrew,2013-06-19 20:45:00,
2013-06-19 13:50:00,65.3,-99.9,29.91,SSW,205,2.1,6.3,-999,0.00,,,0.00,homebrew,2013-06-19 20:50:00,
2013-06-19 13:55:00,64.7,-99.9,29.91,SSW,212,1.6,4.7,-999,0.00,,,0.00,homebrew,2013-06-19 20:55:00,
2013-06-19 14:00:00,64.9,-99.9,29.91,South,174,1.2,3.8,-999,0.00,,,0.00,homebrew,2013-06-19 21:00:00,
2013-06-19 14:05:00,64.1,-99.9,29.91,WSW,241,1.6,7.6,-999,0.00,,,0.00,homebrew,2013-06-19 21:05:00,
2013-06-19 14:10:00,63.7,-99.9,29.91,WSW,253,1.8,6.2,-999,0.00,,,0.00,homebrew,2013-06-19 21:10:00,
2013-06-19 14:15:00,63.7,-99.9,29.91,South,186,1.8,3.5,-999,0.00,,,0.00,homebrew,2013-06-19 21:15:00,
2013-06-19 14:20:00,64.2,-99.9,29.92,NE,39,0.2,4.2,-999,0.00,,,0.00,homebrew,2013-06-19 21:20:00,
2013-06-19 14:25:00,64.0,-99.9,29.92,SSE,153,0.9,2.8,-999,0.00,,,0.00,homebrew,2013-06-19 21:25:00,
2013-06-19 14:35:00,63.4,-99.9,29.92,ENE,75,2.5,5.2,-999,0.00,,,0.00,homebrew,2013-06-19 21:35:00,
2013-06-19 14:40:00,63.5,-99.9,29.92,East,88,3.6,8.0,-999,0.00,,,0.00,homebrew,2013-06-19 21:40:00,
2013-06-19 14:50:00,62.6,-99.9,29.93,SE,133,5.2,8.5,-999,0.00,,,0.00,homebrew,2013-06-19 21:50:00,
2013-06-19 14:55:00,61.4,-99.9,29.93,SE,124,3.2,5.8,-999,0.00,,,0.00,homebrew,2013-06-19 21:55:00,
2013-06-19 15:00:00,62.7,-99.9,29.93,ESE,117,3.4,6.2,-999,0.00,,,0.00,homebrew,2013-06-19 22:00:00,
2013-06-19 15:05:00,62.3,-99.9,29.93,SE,135,4.4,9.2,-999,0.00,,,0.00,homebrew,2013-06-19 22:05:00,
2013-06-19 15:10:00,61.6,-99.9,29.92,East,101,5.4,9.3,-999,0.00,,,0.00,homebrew,2013-06-19 22:10:00,
2013-06-19 15:20:00,61.9,-99.9,29.93,ESE,122,4.1,7.0,-999,0.00,,,0.00,homebrew,2013-06-19 22:20:00,
2013-06-19 15:25:00,62.6,-99.9,29.92,East,101,4.3,8.6,-999,0.00,,,0.00,homebrew,2013-06-19 22:25:00,
2013-06-19 15:30:00,62.4,-99.9,29.93,SE,137,3.9,7.0,-999,0.00,,,0.00,homebrew,2013-06-19 22:30:00,
2013-06-19 15:40:00,62.1,-99.9,29.92,ESE,114,3.8,7.0,-999,0.00,,,0.00,homebrew,2013-06-19 22:40:00,
2013-06-19 15:45:00,62.1,-99.9,29.92,SE,137,3.5,5.7,-999,0.00,,,0.00,homebrew,2013-06-19 22:45:00,
2013-06-19 15:55:00,62.7,-99.9,29.92,East,90,3.5,7.0,-999,0.00,,,0.00,homebrew,2013-06-19 22:55:00,
2013-06-19 16:00:00,63.0,-99.9,29.92,East,82,2.9,6.8,-999,0.00,,,0.00,homebrew,2013-06-19 23:00:00,
2013-06-19 16:05:00,62.5,-99.9,29.92,ESE,107,3.0,6.2,-999,0.00,,,0.00,homebrew,2013-06-19 23:05:00,
2013-06-19 16:15:00,62.7,-99.9,29.93,ESE,116,3.4,6.5,-999,0.00,,,0.00,homebrew,2013-06-19 23:15:00,
2013-06-19 16:20:00,62.8,-99.9,29.93,SE,124,3.7,5.8,-999,0.00,,,0.00,homebrew,2013-06-19 23:20:00,
2013-06-19 16:30:00,62.9,-99.9,29.94,ENE,75,2.7,6.3,-999,0.00,,,0.00,homebrew,2013-06-19 23:30:00,
2013-06-19 16:35:00,62.7,-99.9,29.94,SE,130,3.3,6.5,-999,0.00,,,0.00,homebrew,2013-06-19 23:35:00,
2013-06-19 16:40:00,62.0,-99.9,29.93,SE,133,3.0,5.8,-999,0.00,,,0.00,homebrew,2013-06-19 23:40:00,
2013-06-19 16:45:00,61.5,-99.9,29.93,SE,136,4.4,7.6,-999,0.00,,,0.00,homebrew,2013-06-19 23:45:00,
2013-06-19 16:50:00,61.7,-99.9,29.93,East,98,3.5,6.8,-999,0.00,,,0.00,homebrew,2013-06-19 23:50:00,
2013-06-19 16:55:00,62.3,-99.9,29.94,East,95,2.7,5.7,-999,0.00,,,0.00,homebrew,2013-06-19 23:55:00,
2013-06-19 17:00:00,62.8,-99.9,29.94,ESE,113,2.8,6.3,-999,0.00,,,0.00,homebrew,2013-06-20 00:00:00,
2013-06-19 17:05:00,62.2,-99.9,29.94,ESE,119,2.8,5.2,-999,0.00,,,0.00,homebrew,2013-06-20 00:05:00,
2013-06-19 17:10:00,62.2,-99.9,29.94,ESE,119,3.0,6.6,-999,0.00,,,0.00,homebrew,2013-06-20 00:10:00,
2013-06-19 17:20:00,62.8,-99.9,29.93,ESE,104,0.3,1.9,-999,0.00,,,0.00,homebrew,2013-06-20 00:20:00,
2013-06-19 17:25:00,62.8,-99.9,29.93,ESE,122,3.1,5.2,-999,0.00,,,0.00,homebrew,2013-06-20 00:25:00,
2013-06-19 17:30:00,62.8,-99.9,29.93,SSE,160,1.8,4.7,-999,0.00,,,0.00,homebrew,2013-06-20 00:30:00,
2013-06-19 17:35:00,63.2,-99.9,29.92,SSE,149,1.7,4.8,-999,0.00,,,0.00,homebrew,2013-06-20 00:35:00,
2013-06-19 17:40:00,63.5,-99.9,29.93,SSE,153,0.6,3.3,-999,0.00,,,0.00,homebrew,2013-06-20 00:40:00,
2013-06-19 17:45:00,63.7,-99.9,29.93,SSE,148,0.6,3.0,-999,0.00,,,0.00,homebrew,2013-06-20 00:45:00,
2013-06-19 17:50:00,63.9,-99.9,29.93,SE,135,0.1,0.9,-999,0.00,,,0.00,homebrew,2013-06-20 00:50:00,
2013-06-19 17:55:00,63.7,-99.9,29.93,SSE,161,1.0,4.2,-999,0.00,,,0.00,homebrew,2013-06-20 00:55:00,
2013-06-19 18:00:00,63.7,-99.9,29.94,South,185,0.5,1.7,-999,0.00,,,0.00,homebrew,2013-06-20 01:00:00,
2013-06-19 18:10:00,63.8,-99.9,29.94,South,183,0.2,1.6,-999,0.00,,,0.00,homebrew,2013-06-20 01:10:00,
2013-06-19 18:15:00,63.9,-99.9,29.94,SSW,203,1.0,2.4,-999,0.00,,,0.00,homebrew,2013-06-20 01:15:00,
2013-06-19 18:25:00,63.6,-99.9,29.94,SW,219,0.9,3.2,-999,0.00,,,0.00,homebrew,2013-06-20 01:25:00,
2013-06-19 18:30:00,63.6,-99.9,29.94,SSW,212,0.9,3.5,-999,0.00,,,0.00,homebrew,2013-06-20 01:30:00,
2013-06-19 18:35:00,63.8,-99.9,29.94,SSW,203,0.8,3.2,-999,0.00,,,0.00,homebrew,2013-06-20 01:35:00,
2013-06-19 18:40:00,63.8,-99.9,29.94,SE,138,0.1,1.4,-999,0.00,,,0.00,homebrew,2013-06-20 01:40:00,
2013-06-19 18:45:00,63.7,-99.9,29.94,South,187,1.3,7.3,-999,0.00,,,0.00,homebrew,2013-06-20 01:45:00,
2013-06-19 18:50:00,63.5,-99.9,29.94,South,180,1.1,5.1,-999,0.00,,,0.00,homebrew,2013-06-20 01:50:00,
2013-06-19 18:55:00,63.6,-99.9,29.94,SSW,195,1.2,5.2,-999,0.00,,,0.00,homebrew,2013-06-20 01:55:00,
2013-06-19 19:00:00,63.2,-99.9,29.94,South,169,2.3,6.5,-999,0.00,,,0.00,homebrew,2013-06-20 02:00:00,
2013-06-19 19:05:00,63.2,-99.9,29.94,SSE,156,0.0,0.0,-999,0.00,,,0.00,homebrew,2013-06-20 02:05:00,
2013-06-19 19:15:00,63.2,-99.9,29.94,South,179,0.9,3.5,-999,0.00,,,0.00,homebrew,2013-06-20 02:15:00,
2013-06-19 19:20:00,63.0,-99.9,29.94,South,182,0.4,1.8,-999,0.00,,,0.00,homebrew,2013-06-20 02:20:00,
2013-06-19 19:25:00,62.7,-99.9,29.95,SSW,201,1.1,3.0,-999,0.00,,,0.00,homebrew,2013-06-20 02:25:00,
2013-06-19 19:30:00,62.4,-99.9,29.94,South,169,0.5,2.2,-999,0.00,,,0.00,homebrew,2013-06-20 02:30:00,
2013-06-19 19:35:00,62.3,-99.9,29.94,South,182,1.4,5.8,-999,0.00,,,0.00,homebrew,2013-06-20 02:35:00,
2013-06-19 19:40:00,62.0,-99.9,29.94,SSW,206,1.8,5.2,-999,0.00,,,0.00,homebrew,2013-06-20 02:40:00,
2013-06-19 19:45:00,61.9,-99.9,29.94,SSW,201,0.8,2.5,-999,0.00,,,0.00,homebrew,2013-06-20 02:45:00,
2013-06-19 19:50:00,61.8,-99.9,29.95,South,169,1.0,3.4,-999,0.00,,,0.00,homebrew,2013-06-20 02:50:00,
2013-06-19 19:55:00,61.6,-99.9,29.95,South,170,1.8,4.8,-999,0.00,,,0.00,homebrew,2013-06-20 02:55:00,
2013-06-19 20:05:00,61.2,-99.9,29.95,South,180,1.2,3.5,-999,0.00,,,0.00,homebrew,2013-06-20 03:05:00,
2013-06-19 20:15:00,60.6,-99.9,29.95,SSW,198,2.0,6.0,-999,0.00,,,0.00,homebrew,2013-06-20 03:15:00,
2013-06-19 20:20:00,60.5,-99.9,29.95,South,190,1.5,3.5,-999,0.00,,,0.00,homebrew,2013-06-20 03:20:00,
2013-06-19 20:25:00,60.4,-99.9,29.95,SSW,201,3.3,6.6,-999,0.00,,,0.00,homebrew,2013-06-20 03:25:00,
2013-06-19 20:30:00,60.2,-99.9,29.95,SSW,192,2.3,5.8,-999,0.00,,,0.00,homebrew,2013-06-20 03:30:00,
2013-06-19 20:35:00,60.1,-99.9,29.96,South,189,1.6,5.3,-999,0.00,,,0.00,homebrew,2013-06-20 03:35:00,
2013-06-19 20:40:00,60.0,-99.9,29.96,South,181,1.3,3.0,-999,0.00,,,0.00,homebrew,2013-06-20 03:40:00,
2013-06-19 20:45:00,59.7,-99.9,29.96,South,189,1.1,3.2,-999,0.00,,,0.00,homebrew,2013-06-20 03:45:00,
2013-06-19 20:50:00,59.6,-99.9,29.96,South,188,0.9,4.0,-999,0.00,,,0.00,homebrew,2013-06-20 03:50:00,
2013-06-19 20:55:00,59.5,-99.9,29.96,SSW,196,1.1,3.4,-999,0.00,,,0.00,homebrew,2013-06-20 03:55:00,
2013-06-19 21:00:00,59.5,-99.9,29.96,South,181,0.8,3.7,-999,0.00,,,0.00,homebrew,2013-06-20 04:00:00,
2013-06-19 21:05:00,59.5,-99.9,29.96,SSW,195,0.7,2.7,-999,0.00,,,0.00,homebrew,2013-06-20 04:05:00,
2013-06-19 21:10:00,59.5,-99.9,29.96,South,182,1.9,7.3,-999,0.00,,,0.00,homebrew,2013-06-20 04:10:00,
2013-06-19 21:15:00,59.4,-99.9,29.96,South,184,1.1,4.0,-999,0.00,,,0.00,homebrew,2013-06-20 04:15:00,
2013-06-19 21:25:00,59.1,-99.9,29.96,SW,222,1.6,5.1,-999,0.00,,,0.00,homebrew,2013-06-20 04:25:00,
2013-06-19 21:30:00,58.9,-99.9,29.96,SSW,209,1.9,4.0,-999,0.00,,,0.00,homebrew,2013-06-20 04:30:00,
2013-06-19 21:35:00,58.7,-99.9,29.96,SSW,212,2.7,7.9,-999,0.00,,,0.00,homebrew,2013-06-20 04:35:00,
2013-06-19 21:40:00,58.4,-99.9,29.96,SSW,193,1.5,4.3,-999,0.00,,,0.00,homebrew,2013-06-20 04:40:00,
2013-06-19 21:45:00,58.1,-99.9,29.96,SSW,192,1.1,4.7,-999,0.00,,,0.00,homebrew,2013-06-20 04:45:00,
2013-06-19 21:50:00,58.0,-99.9,29.96,South,187,1.4,5.4,-999,0.00,,,0.00,homebrew,2013-06-20 04:50:00,
2013-06-19 22:00:00,57.7,-99.9,29.96,South,177,0.7,5.0,-999,0.00,,,0.00,homebrew,2013-06-20 05:00:00,
2013-06-19 22:05:00,57.6,-99.9,29.97,SSE,158,0.7,3.4,-999,0.00,,,0.00,homebrew,2013-06-20 05:05:00,
2013-06-19 22:15:00,57.4,-99.9,29.97,SSW,199,0.6,3.0,-999,0.00,,,0.00,homebrew,2013-06-20 05:15:00,
2013-06-19 22:20:00,57.2,-99.9,29.97,SSE,148,0.0,0.3,-999,0.00,,,0.00,homebrew,2013-06-20 05:20:00,
2013-06-19 22:25:00,57.3,-99.9,29.97,South,175,0.3,2.8,-999,0.00,,,0.00,homebrew,2013-06-20 05:25:00,
2013-06-19 22:30:00,57.3,-99.9,29.96,SW,214,1.0,5.5,-999,0.00,,,0.00,homebrew,2013-06-20 05:30:00,
2013-06-19 22:35:00,57.3,-99.9,29.96,SSW,196,1.5,5.5,-999,0.00,,,0.00,homebrew,2013-06-20 05:35:00,
2013-06-19 22:40:00,57.4,-99.9,29.96,SSW,211,2.6,10.4,-999,0.00,,,0.00,homebrew,2013-06-20 05:40:00,
2013-06-19 22:45:00,57.5,-99.9,29.96,SSW,205,2.3,8.3,-999,0.00,,,0.00,homebrew,2013-06-20 05:45:00,
2013-06-19 22:50:00,57.6,-99.9,29.95,SSW,207,2.4,9.2,-999,0.00,,,0.00,homebrew,2013-06-20 05:50:00,
2013-06-19 22:55:00,57.6,-99.9,29.95,SW,216,3.2,11.1,-999,0.00,,,0.00,homebrew,2013-06-20 05:55:00,
2013-06-19 23:05:00,57.6,-99.9,29.96,SW,217,3.4,8.1,-999,0.00,,,0.00,homebrew,2013-06-20 06:05:00,
2013-06-19 23:10:00,57.6,-99.9,29.97,South,182,1.7,5.7,-999,0.00,,,0.00,homebrew,2013-06-20 06:10:00,
2013-06-19 23:20:00,57.4,-99.9,29.97,SSW,209,2.7,6.0,-999,0.00,,,0.00,homebrew,2013-06-20 06:20:00,
2013-06-19 23:25:00,57.4,-99.9,29.97,SSW,205,2.2,7.3,-999,0.00,,,0.00,homebrew,2013-06-20 06:25:00,
2013-06-19 23:30:00,57.5,-99.9,29.97,SSW,197,2.4,7.3,-999,0.00,,,0.00,homebrew,2013-06-20 06:30:00,
2013-06-19 23:35:00,57.5,-99.9,29.97,SSW,206,2.3,6.6,-999,0.00,,,0.00,homebrew,2013-06-20 06:35:00,
2013-06-19 23:40:00,57.5,-99.9,29.98,SSW,192,1.3,6.8,-999,0.00,,,0.00,homebrew,2013-06-20 06:40:00,
2013-06-19 23:45:00,57.4,-99.9,29.98,SSW,213,2.0,6.4,-999,0.00,,,0.00,homebrew,2013-06-20 06:45:00,
2013-06-19 23:55:00,57.4,-99.9,29.98,SSW,192,1.6,6.6,-999,0.00,,,0.00,homebrew,2013-06-20 06:55:00,